| time (UTC) | temp F | wind direction | speed MPH | gust MPH | rain 1hr in | rain 24hr in | rain mn in | humidity % | barometer mb |
| 20260506170104 | 36 | 0 | 5.0 | 13.0 | 0.00 | 0.00 | 0.00 | 78 | 1010.0 |
| 20260506165604 | 36 | 0 | 5.0 | 15.0 | 0.00 | 0.00 | 0.00 | 78 | 1010.0 |
| 20260506165104 | 37 | 0 | 5.0 | 12.0 | 0.00 | 0.00 | 0.00 | 76 | 1009.9 |
| 20260506164604 | 38 | 0 | 3.0 | 10.0 | 0.00 | 0.00 | 0.00 | 74 | 1009.8 |
| 20260506164104 | 38 | 0 | 1.0 | 3.0 | 0.00 | 0.00 | 0.00 | 73 | 1009.8 |
| 20260506163604 | 38 | 0 | 3.0 | 5.0 | 0.00 | 0.00 | 0.00 | 73 | 1009.7 |
| 20260506163103 | 38 | 0 | 3.0 | 6.0 | 0.00 | 0.00 | 0.00 | 73 | 1009.7 |
| 20260506162604 | 37 | 0 | 2.0 | 6.0 | 0.00 | 0.00 | 0.00 | 77 | 1009.6 |
| 20260506162103 | 37 | 0 | 3.0 | 5.0 | 0.00 | 0.00 | 0.00 | 77 | 1009.7 |
| 20260506161604 | 37 | 0 | 4.0 | 9.0 | 0.00 | 0.00 | 0.00 | 79 | 1009.6 |
| 20260506161104 | 37 | 0 | 2.0 | 8.0 | 0.00 | 0.00 | 0.00 | 80 | 1009.7 |
| 20260506160604 | 36 | 0 | 3.0 | 8.0 | 0.00 | 0.00 | 0.00 | 82 | 1009.7 |
| 20260506160103 | 36 | 0 | 3.0 | 6.0 | 0.00 | 0.00 | 0.00 | 81 | 1009.6 |
| 20260506155603 | 36 | 0 | 5.0 | 15.0 | 0.00 | 0.00 | 0.00 | 79 | 1009.7 |
| 20260506155104 | 37 | 0 | 4.0 | 13.0 | 0.00 | 0.00 | 0.00 | 77 | 1009.7 |
| 20260506154604 | 38 | 0 | 4.0 | 12.0 | 0.00 | 0.00 | 0.00 | 72 | 1009.5 |
| 20260506154104 | 39 | 0 | 5.0 | 13.0 | 0.00 | 0.00 | 0.00 | 72 | 1009.4 |
| 20260506153603 | 39 | 0 | 2.0 | 3.0 | 0.00 | 0.00 | 0.00 | 73 | 1009.3 |
| 20260506153104 | 39 | 0 | 1.0 | 3.0 | 0.00 | 0.00 | 0.00 | 71 | 1009.3 |
| 20260506152603 | 39 | 0 | 0.0 | 3.0 | 0.00 | 0.00 | 0.00 | 73 | 1009.2 |
| 20260506152104 | 39 | 331 | 0.0 | 2.0 | 0.00 | 0.00 | 0.00 | 72 | 1009.2 |
| 20260506151604 | 39 | 358 | 1.0 | 5.0 | 0.00 | 0.00 | 0.00 | 74 | 1009.3 |
| 20260506151103 | 39 | 356 | 1.0 | 3.0 | 0.00 | 0.00 | 0.00 | 74 | 1009.2 |
| 20260506150604 | 38 | 339 | 2.0 | 3.0 | 0.00 | 0.00 | 0.00 | 77 | 1009.2 |
| 20260506150103 | 38 | 0 | 1.0 | 2.0 | 0.00 | 0.00 | 0.00 | 76 | 1009.2 |
| 20260506145604 | 38 | 0 | 0.0 | 3.0 | 0.00 | 0.00 | 0.00 | 76 | 1009.3 |
| 20260506145103 | 38 | 345 | 1.0 | 3.0 | 0.00 | 0.00 | 0.00 | 76 | 1009.3 |
| 20260506144604 | 38 | 287 | 2.0 | 3.0 | 0.00 | 0.00 | 0.00 | 76 | 1009.2 |
| 20260506144105 | 38 | 0 | 1.0 | 3.0 | 0.00 | 0.00 | 0.00 | 78 | 1009.2 |
| 20260506143604 | 37 | 336 | 1.0 | 3.0 | 0.00 | 0.00 | 0.00 | 80 | 1009.2 |
| 20260506143104 | 37 | 0 | 1.0 | 5.0 | 0.00 | 0.00 | 0.00 | 80 | 1009.3 |
| 20260506142604 | 37 | 0 | 1.0 | 7.0 | 0.00 | 0.00 | 0.00 | 79 | 1009.4 |
| 20260506142104 | 39 | 0 | 2.0 | 3.0 | 0.00 | 0.00 | 0.00 | 74 | 1009.3 |
| 20260506141604 | 40 | 309 | 1.0 | 3.0 | 0.00 | 0.00 | 0.00 | 67 | 1009.1 |
| 20260506141103 | 41 | 214 | 2.0 | 5.0 | 0.00 | 0.00 | 0.00 | 66 | 1009.0 |
| 20260506140604 | 40 | 332 | 1.0 | 2.0 | 0.00 | 0.00 | 0.00 | 68 | 1008.9 |
| 20260506140103 | 40 | 359 | 1.0 | 2.0 | 0.00 | 0.00 | 0.00 | 67 | 1009.0 |
| 20260506135603 | 41 | 258 | 1.0 | 3.0 | 0.00 | 0.00 | 0.00 | 66 | 1008.9 |
| 20260506135104 | 41 | 327 | 1.0 | 3.0 | 0.00 | 0.00 | 0.00 | 66 | 1008.9 |
| 20260506134603 | 41 | 304 | 2.0 | 5.0 | 0.00 | 0.00 | 0.00 | 68 | 1008.8 |
| 20260506134104 | 41 | 209 | 1.0 | 3.0 | 0.00 | 0.00 | 0.00 | 68 | 1008.9 |
| 20260506133603 | 41 | 261 | 1.0 | 5.0 | 0.00 | 0.00 | 0.00 | 68 | 1008.9 |
| 20260506133104 | 41 | 340 | 1.0 | 3.0 | 0.00 | 0.00 | 0.00 | 66 | 1008.8 |
| 20260506132604 | 40 | 0 | 1.0 | 3.0 | 0.00 | 0.00 | 0.00 | 68 | 1008.8 |
| 20260506132104 | 40 | 314 | 3.0 | 9.0 | 0.00 | 0.00 | 0.00 | 70 | 1008.8 |
| 20260506131604 | 39 | 308 | 3.0 | 12.0 | 0.00 | 0.00 | 0.00 | 70 | 1008.9 |
| 20260506131103 | 40 | 356 | 2.0 | 3.0 | 0.00 | 0.00 | 0.00 | 69 | 1008.8 |
| 20260506130603 | 40 | 358 | 4.0 | 7.0 | 0.00 | 0.00 | 0.00 | 65 | 1008.8 |
| 20260506130104 | 40 | 345 | 3.0 | 10.0 | 0.00 | 0.00 | 0.00 | 68 | 1008.6 |
| 20260506125604 | 39 | 0 | 2.0 | 7.0 | 0.00 | 0.00 | 0.00 | 71 | 1008.7 |
| 20260506125105 | 39 | 0 | 1.0 | 3.0 | 0.00 | 0.00 | 0.00 | 70 | 1008.8 |
| 20260506124604 | 40 | 0 | 2.0 | 8.0 | 0.00 | 0.00 | 0.00 | 69 | 1008.8 |
| 20260506124103 | 41 | 0 | 2.0 | 5.0 | 0.00 | 0.00 | 0.00 | 64 | 1008.6 |
| 20260506123604 | 41 | 266 | 3.0 | 3.0 | 0.00 | 0.00 | 0.00 | 62 | 1008.5 |
| 20260506123104 | 40 | 323 | 3.0 | 6.0 | 0.00 | 0.00 | 0.00 | 69 | 1008.4 |
| 20260506122604 | 39 | 0 | 2.0 | 3.0 | 0.00 | 0.00 | 0.00 | 67 | 1008.4 |
| 20260506122104 | 39 | 0 | 3.0 | 8.0 | 0.00 | 0.00 | 0.00 | 68 | 1008.3 |
| 20260506121604 | 38 | 0 | 3.0 | 8.0 | 0.00 | 0.00 | 0.00 | 66 | 1008.4 |
| 20260506121104 | 39 | 0 | 3.0 | 12.0 | 0.00 | 0.00 | 0.00 | 67 | 1008.5 |
| 20260506120604 | 40 | 0 | 6.0 | 15.0 | 0.00 | 0.00 | 0.00 | 66 | 1008.5 |
| 20260506120104 | 42 | 0 | 9.0 | 14.0 | 0.00 | 0.00 | 0.00 | 62 | 1008.4 |
| 20260506115604 | 42 | 263 | 5.0 | 9.0 | 0.00 | 0.00 | 0.00 | 59 | 1008.2 |
| 20260506115104 | 41 | 303 | 3.0 | 6.0 | 0.00 | 0.00 | 0.00 | 63 | 1008.1 |
| 20260506114604 | 41 | 0 | 3.0 | 6.0 | 0.00 | 0.00 | 0.00 | 62 | 1008.1 |
| 20260506114104 | 42 | 0 | 2.0 | 8.0 | 0.00 | 0.00 | 0.00 | 62 | 1008.0 |
| 20260506113604 | 42 | 233 | 4.0 | 8.0 | 0.00 | 0.00 | 0.00 | 62 | 1008.0 |
| 20260506113104 | 41 | 223 | 2.0 | 8.0 | 0.00 | 0.00 | 0.00 | 64 | 1008.1 |
| 20260506112603 | 40 | 263 | 2.0 | 6.0 | 0.00 | 0.00 | 0.00 | 70 | 1008.1 |
| 20260506112103 | 39 | 316 | 2.0 | 8.0 | 0.00 | 0.00 | 0.00 | 72 | 1008.0 |
| 20260506111604 | 38 | 291 | 1.0 | 3.0 | 0.00 | 0.00 | 0.00 | 75 | 1008.1 |
| 20260506111104 | 38 | 346 | 0.0 | 3.0 | 0.00 | 0.00 | 0.00 | 73 | 1008.0 |
| 20260506110604 | 39 | 0 | 1.0 | 6.0 | 0.00 | 0.00 | 0.00 | 70 | 1008.0 |
| 20260506110103 | 39 | 0 | 1.0 | 2.0 | 0.00 | 0.00 | 0.00 | 70 | 1007.9 |
| 20260506105604 | 39 | 0 | 1.0 | 2.0 | 0.00 | 0.00 | 0.00 | 69 | 1007.8 |
| 20260506105103 | 39 | 327 | 1.0 | 2.0 | 0.00 | 0.00 | 0.00 | 68 | 1007.8 |
| 20260506104604 | 40 | 350 | 1.0 | 2.0 | 0.00 | 0.00 | 0.00 | 69 | 1007.8 |
| 20260506104104 | 40 | 344 | 1.0 | 3.0 | 0.00 | 0.00 | 0.00 | 72 | 1007.7 |
| 20260506103603 | 39 | 323 | 1.0 | 2.0 | 0.00 | 0.00 | 0.00 | 71 | 1007.7 |
| 20260506103103 | 40 | 355 | 2.0 | 3.0 | 0.00 | 0.00 | 0.00 | 68 | 1007.7 |
| 20260506102604 | 40 | 284 | 2.0 | 3.0 | 0.00 | 0.00 | 0.00 | 67 | 1007.6 |
| 20260506102104 | 40 | 320 | 2.0 | 3.0 | 0.00 | 0.00 | 0.00 | 68 | 1007.6 |
| 20260506101604 | 39 | 0 | 1.0 | 3.0 | 0.00 | 0.00 | 0.00 | 69 | 1007.6 |
| 20260506101104 | 38 | 0 | 1.0 | 2.0 | 0.00 | 0.00 | 0.00 | 69 | 1007.5 |
| 20260506100604 | 39 | 0 | 1.0 | 3.0 | 0.00 | 0.00 | 0.00 | 68 | 1007.5 |
| 20260506100103 | 41 | 356 | 2.0 | 3.0 | 0.00 | 0.00 | 0.00 | 62 | 1007.4 |
| 20260506095603 | 43 | 258 | 2.0 | 5.0 | 0.00 | 0.00 | 0.00 | 61 | 1007.3 |
| 20260506095103 | 41 | 350 | 2.0 | 5.0 | 0.00 | 0.00 | 0.00 | 62 | 1007.2 |
| 20260506094603 | 40 | 331 | 1.0 | 3.0 | 0.00 | 0.00 | 0.00 | 64 | 1007.2 |
| 20260506094104 | 40 | 0 | 1.0 | 2.0 | 0.00 | 0.00 | 0.00 | 64 | 1007.2 |
| 20260506093604 | 40 | 359 | 1.0 | 2.0 | 0.00 | 0.00 | 0.00 | 63 | 1007.1 |
| 20260506093104 | 41 | 337 | 2.0 | 7.0 | 0.00 | 0.00 | 0.00 | 65 | 1007.2 |
| 20260506092604 | 41 | 313 | 2.0 | 3.0 | 0.00 | 0.00 | 0.00 | 65 | 1007.2 |
| 20260506092104 | 41 | 289 | 1.0 | 3.0 | 0.00 | 0.00 | 0.00 | 67 | 1007.1 |
| 20260506091603 | 39 | 280 | 2.0 | 3.0 | 0.00 | 0.00 | 0.00 | 71 | 1007.1 |
| 20260506091103 | 39 | 248 | 1.0 | 1.0 | 0.00 | 0.00 | 0.00 | 69 | 1007.1 |
| 20260506090604 | 39 | 0 | 0.0 | 2.0 | 0.00 | 0.00 | 0.00 | 69 | 1007.1 |
| 20260506090104 | 39 | 341 | 1.0 | 2.0 | 0.00 | 0.00 | 0.00 | 68 | 1007.0 |
| 20260506085603 | 39 | 316 | 0.0 | 3.0 | 0.00 | 0.00 | 0.00 | 69 | 1007.0 |
| 20260506085103 | 39 | 353 | 0.0 | 2.0 | 0.00 | 0.00 | 0.00 | 68 | 1007.0 |
| 20260506084604 | 39 | 335 | 2.0 | 3.0 | 0.00 | 0.00 | 0.00 | 70 | 1007.0 |
| 20260506084104 | 39 | 313 | 1.0 | 2.0 | 0.00 | 0.00 | 0.00 | 71 | 1006.9 |
| 20260506083603 | 38 | 0 | 0.0 | 1.0 | 0.00 | 0.00 | 0.00 | 71 | 1006.9 |
| 20260506083104 | 38 | 0 | 0.0 | 1.0 | 0.00 | 0.00 | 0.00 | 70 | 1006.9 |
| 20260506082604 | 38 | 0 | 1.0 | 3.0 | 0.00 | 0.00 | 0.00 | 69 | 1006.9 |
| 20260506082104 | 38 | 345 | 1.0 | 3.0 | 0.00 | 0.00 | 0.00 | 69 | 1006.8 |
| 20260506081604 | 39 | 0 | 1.0 | 3.0 | 0.00 | 0.00 | 0.00 | 69 | 1006.7 |
| 20260506081104 | 39 | 0 | 0.0 | 1.0 | 0.00 | 0.00 | 0.00 | 71 | 1006.7 |
| 20260506080604 | 38 | 0 | 0.0 | 2.0 | 0.00 | 0.00 | 0.00 | 71 | 1006.6 |
| 20260506080104 | 38 | 0 | 1.0 | 3.0 | 0.00 | 0.00 | 0.00 | 71 | 1006.6 |
| 20260506073103 | 37 | 0 | 0.0 | 2.0 | 0.00 | 0.00 | 0.00 | 71 | 1006.3 |
| 20260506072604 | 37 | 0 | 1.0 | 2.0 | 0.00 | 0.00 | 0.00 | 71 | 1006.2 |
| 20260506072104 | 37 | 0 | 1.0 | 3.0 | 0.00 | 0.00 | 0.00 | 71 | 1006.2 |
| 20260506071604 | 38 | 0 | 1.0 | 3.0 | 0.00 | 0.00 | 0.00 | 72 | 1006.2 |
| 20260506071104 | 37 | 0 | 1.0 | 3.0 | 0.00 | 0.00 | 0.00 | 73 | 1006.1 |
| 20260506070604 | 37 | 0 | 1.0 | 3.0 | 0.00 | 0.00 | 0.00 | 74 | 1006.1 |
| 20260506070104 | 37 | 0 | 1.0 | 3.0 | 0.00 | 0.00 | 0.00 | 74 | 1006.0 |
| 20260506062104 | 35 | 0 | 3.0 | 7.0 | 0.00 | 0.00 | 0.00 | 78 | 1005.6 |
| 20260506061604 | 35 | 0 | 4.0 | 9.0 | 0.00 | 0.00 | 0.00 | 78 | 1005.6 |
| 20260506061104 | 35 | 0 | 3.0 | 6.0 | 0.00 | 0.00 | 0.00 | 78 | 1005.6 |
| 20260506060604 | 35 | 0 | 2.0 | 8.0 | 0.00 | 0.00 | 0.00 | 78 | 1005.6 |
| 20260506060104 | 35 | 0 | 3.0 | 5.0 | 0.00 | 0.00 | 0.00 | 79 | 1005.5 |
| 20260506051104 | 32 | 0 | 2.0 | 7.0 | 0.00 | 0.00 | 0.00 | 84 | 1005.1 |
| 20260506050603 | 32 | 0 | 2.0 | 8.0 | 0.00 | 0.00 | 0.00 | 84 | 1005.1 |
| 20260506050104 | 32 | 0 | 3.0 | 6.0 | 0.00 | 0.00 | 0.00 | 84 | 1005.1 |
| 20260506045104 | 32 | 0 | 3.0 | 7.0 | 0.00 | 0.00 | 0.00 | 83 | 1005.0 |
| 20260506044604 | 32 | 0 | 4.0 | 7.0 | 0.00 | 0.00 | 0.00 | 83 | 1004.9 |
| 20260506044104 | 32 | 0 | 3.0 | 6.0 | 0.00 | 0.00 | 0.00 | 83 | 1004.8 |
| 20260506043604 | 32 | 0 | 3.0 | 5.0 | 0.00 | 0.00 | 0.00 | 83 | 1004.8 |
| 20260506043103 | 32 | 0 | 2.0 | 5.0 | 0.00 | 0.00 | 0.00 | 83 | 1004.8 |
| 20260506042604 | 32 | 0 | 3.0 | 6.0 | 0.00 | 0.00 | 0.00 | 82 | 1004.7 |
| 20260506042104 | 32 | 0 | 3.0 | 6.0 | 0.00 | 0.00 | 0.00 | 82 | 1004.7 |
| 20260506041604 | 32 | 0 | 2.0 | 6.0 | 0.00 | 0.00 | 0.00 | 81 | 1004.7 |
| 20260506041104 | 32 | 0 | 3.0 | 7.0 | 0.00 | 0.00 | 0.00 | 80 | 1004.6 |
| 20260506040605 | 32 | 0 | 2.0 | 5.0 | 0.00 | 0.00 | 0.00 | 80 | 1004.6 |
| 20260506040104 | 32 | 0 | 2.0 | 6.0 | 0.00 | 0.00 | 0.00 | 79 | 1004.6 |
| 20260506035603 | 32 | 0 | 3.0 | 5.0 | 0.00 | 0.00 | 0.00 | 79 | 1004.6 |
| 20260506035103 | 32 | 0 | 3.0 | 6.0 | 0.00 | 0.00 | 0.00 | 79 | 1004.6 |
| 20260506034604 | 32 | 0 | 2.0 | 3.0 | 0.00 | 0.00 | 0.00 | 80 | 1004.5 |
| 20260506034103 | 31 | 0 | 2.0 | 3.0 | 0.00 | 0.00 | 0.00 | 81 | 1004.4 |
| 20260506033603 | 31 | 0 | 2.0 | 5.0 | 0.00 | 0.00 | 0.00 | 80 | 1004.4 |
| 20260506033103 | 31 | 0 | 1.0 | 3.0 | 0.00 | 0.00 | 0.00 | 81 | 1004.3 |
| 20260506032604 | 31 | 0 | 1.0 | 3.0 | 0.00 | 0.00 | 0.00 | 81 | 1004.3 |
| 20260506032104 | 31 | 0 | 1.0 | 3.0 | 0.00 | 0.00 | 0.00 | 82 | 1004.3 |
| 20260506031604 | 30 | 0 | 0.0 | 1.0 | 0.00 | 0.00 | 0.00 | 82 | 1004.3 |
| 20260506031104 | 30 | 0 | 0.0 | 1.0 | 0.00 | 0.00 | 0.00 | 82 | 1004.3 |
| 20260506030603 | 30 | 0 | 0.0 | 2.0 | 0.00 | 0.00 | 0.00 | 82 | 1004.3 |
| 20260506030104 | 30 | 0 | 0.0 | 2.0 | 0.00 | 0.00 | 0.00 | 83 | 1004.3 |
| 20260506025603 | 30 | 0 | 1.0 | 2.0 | 0.00 | 0.00 | 0.00 | 83 | 1004.2 |
| 20260506025104 | 29 | 0 | 1.0 | 3.0 | 0.00 | 0.00 | 0.00 | 83 | 1004.2 |
| 20260506024604 | 29 | 0 | 0.0 | 2.0 | 0.00 | 0.00 | 0.00 | 83 | 1004.2 |
| 20260506024104 | 29 | 0 | 0.0 | 1.0 | 0.00 | 0.00 | 0.00 | 83 | 1004.1 |
| 20260506023603 | 29 | 0 | 0.0 | 3.0 | 0.00 | 0.00 | 0.00 | 83 | 1004.1 |
| 20260506023103 | 29 | 0 | 0.0 | 2.0 | 0.00 | 0.00 | 0.00 | 83 | 1004.0 |
| 20260506022603 | 29 | 0 | 1.0 | 2.0 | 0.00 | 0.00 | 0.00 | 83 | 1004.0 |
| 20260506022103 | 29 | 0 | 1.0 | 3.0 | 0.00 | 0.00 | 0.00 | 83 | 1004.0 |
| 20260506021604 | 29 | 0 | 1.0 | 3.0 | 0.00 | 0.00 | 0.00 | 84 | 1004.0 |
| 20260506021104 | 29 | 0 | 0.0 | 1.0 | 0.00 | 0.00 | 0.00 | 84 | 1003.9 |
| 20260506020604 | 29 | 0 | 1.0 | 3.0 | 0.00 | 0.00 | 0.00 | 84 | 1003.9 |
| 20260506020104 | 28 | 0 | 2.0 | 5.0 | 0.00 | 0.00 | 0.00 | 85 | 1003.9 |
| 20260506015603 | 28 | 0 | 1.0 | 2.0 | 0.00 | 0.00 | 0.00 | 85 | 1004.0 |
| 20260506015103 | 27 | 0 | 0.0 | 2.0 | 0.00 | 0.00 | 0.00 | 84 | 1003.9 |
| 20260506014604 | 27 | 0 | 1.0 | 3.0 | 0.00 | 0.00 | 0.00 | 84 | 1003.9 |
| 20260506014104 | 27 | 0 | 0.0 | 2.0 | 0.00 | 0.00 | 0.00 | 83 | 1004.0 |
| 20260506013604 | 28 | 0 | 1.0 | 2.0 | 0.00 | 0.00 | 0.00 | 82 | 1003.9 |
| 20260506013104 | 28 | 0 | 0.0 | 1.0 | 0.00 | 0.00 | 0.00 | 82 | 1003.8 |
| 20260506012604 | 28 | 0 | 0.0 | 0.0 | 0.00 | 0.00 | 0.00 | 82 | 1003.7 |
| 20260506012104 | 28 | 0 | 1.0 | 2.0 | 0.00 | 0.00 | 0.00 | 82 | 1003.7 |
| 20260506011604 | 28 | 0 | 1.0 | 2.0 | 0.00 | 0.00 | 0.00 | 82 | 1003.7 |
| 20260506011103 | 28 | 0 | 0.0 | 0.0 | 0.00 | 0.00 | 0.00 | 82 | 1003.7 |
| 20260506010604 | 28 | 0 | 0.0 | 1.0 | 0.00 | 0.00 | 0.00 | 82 | 1003.7 |
| 20260506010103 | 28 | 0 | 0.0 | 0.0 | 0.00 | 0.00 | 0.00 | 81 | 1003.7 |
| 20260506005603 | 29 | 0 | 0.0 | 0.0 | 0.00 | 0.00 | 0.00 | 80 | 1003.6 |
| 20260506005103 | 29 | 0 | 0.0 | 2.0 | 0.00 | 0.00 | 0.00 | 80 | 1003.5 |
| 20260506004604 | 29 | 0 | 0.0 | 2.0 | 0.00 | 0.00 | 0.00 | 79 | 1003.5 |
| 20260506004103 | 29 | 0 | 1.0 | 3.0 | 0.00 | 0.00 | 0.00 | 80 | 1003.5 |
| 20260506003604 | 29 | 0 | 1.0 | 2.0 | 0.00 | 0.00 | 0.00 | 79 | 1003.6 |
| 20260506003104 | 29 | 0 | 2.0 | 6.0 | 0.00 | 0.00 | 0.00 | 80 | 1003.6 |
| 20260506002604 | 29 | 0 | 2.0 | 3.0 | 0.00 | 0.00 | 0.00 | 79 | 1003.5 |
| 20260506002104 | 29 | 0 | 2.0 | 3.0 | 0.00 | 0.00 | 0.00 | 79 | 1003.6 |
| 20260506001603 | 29 | 0 | 1.0 | 3.0 | 0.00 | 0.00 | 0.00 | 80 | 1003.5 |
| 20260506001103 | 29 | 0 | 2.0 | 5.0 | 0.00 | 0.00 | 0.00 | 80 | 1003.5 |
| 20260506000604 | 29 | 0 | 1.0 | 5.0 | 0.00 | 0.00 | 0.00 | 80 | 1003.5 |
| 20260506000103 | 29 | 0 | 2.0 | 5.0 | 0.00 | 0.00 | 0.00 | 80 | 1003.5 |
| 20260505235603 | 29 | 0 | 2.0 | 3.0 | 0.00 | 0.00 | 0.00 | 80 | 1003.5 |
| 20260505235103 | 29 | 0 | 2.0 | 3.0 | 0.00 | 0.00 | 0.00 | 79 | 1003.5 |
| 20260505234604 | 29 | 0 | 2.0 | 5.0 | 0.00 | 0.00 | 0.00 | 79 | 1003.5 |
| 20260505234103 | 29 | 0 | 2.0 | 6.0 | 0.00 | 0.00 | 0.00 | 79 | 1003.6 |
| 20260505233604 | 29 | 0 | 3.0 | 6.0 | 0.00 | 0.00 | 0.00 | 79 | 1003.6 |
| 20260505233104 | 29 | 0 | 2.0 | 3.0 | 0.00 | 0.00 | 0.00 | 80 | 1003.6 |
| 20260505232604 | 29 | 0 | 2.0 | 6.0 | 0.00 | 0.00 | 0.00 | 79 | 1003.6 |
| 20260505232104 | 29 | 0 | 1.0 | 3.0 | 0.00 | 0.00 | 0.00 | 79 | 1003.6 |
| 20260505231604 | 29 | 0 | 2.0 | 6.0 | 0.00 | 0.00 | 0.00 | 79 | 1003.6 |
| 20260505231104 | 29 | 0 | 2.0 | 5.0 | 0.00 | 0.00 | 0.00 | 78 | 1003.6 |
| 20260505230603 | 29 | 0 | 2.0 | 3.0 | 0.00 | 0.00 | 0.00 | 78 | 1003.6 |
| 20260505230104 | 29 | 0 | 2.0 | 6.0 | 0.00 | 0.00 | 0.00 | 78 | 1003.6 |
| 20260505225604 | 29 | 0 | 2.0 | 5.0 | 0.00 | 0.00 | 0.00 | 78 | 1003.6 |
| 20260505225104 | 29 | 0 | 1.0 | 3.0 | 0.00 | 0.00 | 0.00 | 78 | 1003.6 |
| 20260505224603 | 29 | 0 | 1.0 | 3.0 | 0.00 | 0.00 | 0.00 | 77 | 1003.6 |
| 20260505224104 | 29 | 0 | 3.0 | 12.0 | 0.00 | 0.00 | 0.00 | 77 | 1003.6 |
| 20260505223604 | 29 | 0 | 2.0 | 5.0 | 0.00 | 0.00 | 0.00 | 77 | 1003.6 |
| 20260505223104 | 29 | 0 | 2.0 | 5.0 | 0.00 | 0.00 | 0.00 | 77 | 1003.6 |
| 20260505222604 | 29 | 0 | 2.0 | 5.0 | 0.00 | 0.00 | 0.00 | 77 | 1003.7 |
| 20260505222104 | 29 | 0 | 3.0 | 6.0 | 0.00 | 0.00 | 0.00 | 77 | 1003.6 |
| 20260505221604 | 29 | 0 | 4.0 | 7.0 | 0.00 | 0.00 | 0.00 | 77 | 1003.6 |
| 20260505221108 | 30 | 0 | 2.0 | 7.0 | 0.00 | 0.00 | 0.00 | 77 | 1003.5 |
| 20260505220604 | 30 | 0 | 3.0 | 6.0 | 0.00 | 0.00 | 0.00 | 76 | 1003.5 |
| 20260505220104 | 30 | 0 | 3.0 | 5.0 | 0.00 | 0.00 | 0.00 | 76 | 1003.5 |
| 20260505215603 | 30 | 0 | 2.0 | 5.0 | 0.00 | 0.00 | 0.00 | 76 | 1003.5 |
| 20260505215104 | 30 | 0 | 3.0 | 6.0 | 0.00 | 0.00 | 0.00 | 75 | 1003.5 |
| 20260505214604 | 30 | 0 | 2.0 | 3.0 | 0.00 | 0.00 | 0.00 | 75 | 1003.5 |
| 20260505214103 | 30 | 0 | 3.0 | 8.0 | 0.00 | 0.00 | 0.00 | 75 | 1003.5 |
| 20260505213604 | 30 | 0 | 4.0 | 8.0 | 0.00 | 0.00 | 0.00 | 75 | 1003.5 |
| 20260505213104 | 30 | 0 | 3.0 | 8.0 | 0.00 | 0.00 | 0.00 | 74 | 1003.5 |
| 20260505212604 | 30 | 0 | 4.0 | 7.0 | 0.00 | 0.00 | 0.00 | 74 | 1003.5 |
| 20260505212104 | 30 | 0 | 3.0 | 8.0 | 0.00 | 0.00 | 0.00 | 73 | 1003.5 |
| 20260505211604 | 30 | 0 | 3.0 | 6.0 | 0.00 | 0.00 | 0.00 | 73 | 1003.5 |
| 20260505211104 | 30 | 0 | 4.0 | 8.0 | 0.00 | 0.00 | 0.00 | 72 | 1003.5 |
| 20260505210604 | 31 | 0 | 2.0 | 6.0 | 0.00 | 0.00 | 0.00 | 72 | 1003.4 |
| 20260505210104 | 31 | 0 | 3.0 | 6.0 | 0.00 | 0.00 | 0.00 | 71 | 1003.3 |
| 20260505205604 | 31 | 0 | 4.0 | 8.0 | 0.00 | 0.00 | 0.00 | 71 | 1003.3 |
| 20260505205104 | 31 | 0 | 3.0 | 7.0 | 0.00 | 0.00 | 0.00 | 71 | 1003.3 |
| 20260505204603 | 31 | 0 | 3.0 | 8.0 | 0.00 | 0.00 | 0.00 | 71 | 1003.2 |
| 20260505204104 | 32 | 0 | 3.0 | 7.0 | 0.00 | 0.00 | 0.00 | 70 | 1003.2 |
| 20260505203604 | 32 | 0 | 4.0 | 6.0 | 0.00 | 0.00 | 0.00 | 70 | 1003.3 |
| 20260505203104 | 32 | 0 | 3.0 | 7.0 | 0.00 | 0.00 | 0.00 | 69 | 1003.2 |
| 20260505202603 | 32 | 0 | 3.0 | 5.0 | 0.00 | 0.00 | 0.00 | 69 | 1003.3 |
| 20260505202104 | 33 | 0 | 3.0 | 6.0 | 0.00 | 0.00 | 0.00 | 68 | 1003.2 |
| 20260505201604 | 33 | 0 | 3.0 | 6.0 | 0.00 | 0.00 | 0.00 | 67 | 1003.2 |
| 20260505201104 | 33 | 0 | 3.0 | 6.0 | 0.00 | 0.00 | 0.00 | 67 | 1003.2 |
| 20260505200603 | 33 | 0 | 2.0 | 8.0 | 0.00 | 0.00 | 0.00 | 67 | 1003.1 |
| 20260505200104 | 34 | 0 | 5.0 | 9.0 | 0.00 | 0.00 | 0.00 | 66 | 1003.1 |
| 20260505195603 | 34 | 0 | 5.0 | 8.0 | 0.00 | 0.00 | 0.00 | 66 | 1003.1 |
| 20260505195104 | 34 | 0 | 3.0 | 7.0 | 0.00 | 0.00 | 0.00 | 65 | 1003.1 |
| 20260505194605 | 34 | 0 | 5.0 | 8.0 | 0.00 | 0.00 | 0.00 | 64 | 1003.1 |
| 20260505194103 | 34 | 0 | 5.0 | 9.0 | 0.00 | 0.00 | 0.00 | 64 | 1003.0 |
| 20260505193604 | 35 | 0 | 3.0 | 6.0 | 0.00 | 0.00 | 0.00 | 63 | 1002.9 |
| 20260505193105 | 35 | 0 | 2.0 | 6.0 | 0.00 | 0.00 | 0.00 | 63 | 1002.9 |
| 20260505192603 | 35 | 0 | 3.0 | 9.0 | 0.00 | 0.00 | 0.00 | 63 | 1002.9 |
| 20260505192103 | 35 | 0 | 2.0 | 5.0 | 0.00 | 0.00 | 0.00 | 62 | 1002.9 |
| 20260505191603 | 35 | 0 | 2.0 | 6.0 | 0.00 | 0.00 | 0.00 | 62 | 1002.9 |
| 20260505191104 | 35 | 0 | 2.0 | 5.0 | 0.00 | 0.00 | 0.00 | 63 | 1002.9 |
| 20260505190603 | 35 | 0 | 3.0 | 7.0 | 0.00 | 0.00 | 0.00 | 63 | 1002.9 |
| 20260505190104 | 35 | 0 | 3.0 | 7.0 | 0.00 | 0.00 | 0.00 | 63 | 1002.8 |
| 20260505185603 | 35 | 0 | 3.0 | 9.0 | 0.00 | 0.00 | 0.00 | 63 | 1002.8 |
| 20260505185103 | 36 | 0 | 3.0 | 6.0 | 0.00 | 0.00 | 0.00 | 63 | 1002.8 |
| 20260505184603 | 36 | 0 | 2.0 | 6.0 | 0.00 | 0.00 | 0.00 | 61 | 1002.7 |
| 20260505184104 | 36 | 0 | 2.0 | 6.0 | 0.00 | 0.00 | 0.00 | 61 | 1002.7 |
| 20260505183604 | 36 | 0 | 2.0 | 7.0 | 0.00 | 0.00 | 0.00 | 61 | 1002.7 |
| 20260505183104 | 36 | 0 | 3.0 | 6.0 | 0.00 | 0.00 | 0.00 | 61 | 1002.6 |
| 20260505182604 | 36 | 0 | 1.0 | 9.0 | 0.00 | 0.00 | 0.00 | 60 | 1002.6 |
| 20260505182104 | 37 | 0 | 2.0 | 6.0 | 0.00 | 0.00 | 0.00 | 59 | 1002.6 |
| 20260505181604 | 37 | 0 | 1.0 | 3.0 | 0.00 | 0.00 | 0.00 | 60 | 1002.6 |
| 20260505181104 | 37 | 0 | 2.0 | 5.0 | 0.00 | 0.00 | 0.00 | 59 | 1002.6 |
| 20260505180604 | 37 | 0 | 2.0 | 6.0 | 0.00 | 0.00 | 0.00 | 60 | 1002.5 |
| 20260505180104 | 37 | 0 | 1.0 | 3.0 | 0.00 | 0.00 | 0.00 | 60 | 1002.5 |
| 20260505175604 | 37 | 0 | 2.0 | 5.0 | 0.00 | 0.00 | 0.00 | 59 | 1002.5 |
| 20260505175104 | 37 | 0 | 2.0 | 7.0 | 0.00 | 0.00 | 0.00 | 59 | 1002.4 |
| 20260505174603 | 37 | 350 | 2.0 | 3.0 | 0.00 | 0.00 | 0.00 | 60 | 1002.4 |
| 20260505174104 | 37 | 345 | 2.0 | 7.0 | 0.00 | 0.00 | 0.00 | 61 | 1002.3 |
| 20260505173603 | 37 | 324 | 2.0 | 5.0 | 0.00 | 0.00 | 0.00 | 61 | 1002.3 |
| 20260505173103 | 37 | 0 | 1.0 | 3.0 | 0.00 | 0.00 | 0.00 | 63 | 1002.3 |
| 20260505172604 | 37 | 326 | 1.0 | 3.0 | 0.00 | 0.00 | 0.00 | 62 | 1002.3 |
| 20260505172104 | 37 | 0 | 2.0 | 6.0 | 0.00 | 0.00 | 0.00 | 61 | 1002.3 |
| 20260505171604 | 38 | 0 | 1.0 | 3.0 | 0.00 | 0.00 | 0.00 | 62 | 1002.3 |
| 20260505171103 | 38 | 337 | 3.0 | 8.0 | 0.00 | 0.00 | 0.00 | 62 | 1002.3 |
| 20260505170604 | 38 | 358 | 5.0 | 10.0 | 0.00 | 0.00 | 0.00 | 61 | 1002.2 |